Weather in Skovorodino

Russia / Amur Oblast     53°59′13″N   123°56′37″E
temp.,
°C
wind,
m/s
gust,
m/s
humid.,
%
clouds,
%
prec.,
mm/h
press.,
hPa
HPBL,
m
11 may, tue
tue1100:00+4e225671 0.0 101220
03:00+2e22738 0.0 101233
06:00+4e4117597 0.0 1011320
09:00+10ese6125197 0.0 1009967
12:00+13sse61039100 0.0 10072264
15:00+9se51277100 1.1 10081201
18:00+12ese61259100 0.1 10061663
21:00+8sse51082100 0.8 10071034
12 may, wed
wed1200:00+9se51477100 0.4 1005835
03:00+8ese61280100 0.7 10051079
06:00+7e61285100 0.3 1004675
09:00+6e51289100 0.9 10031111
12:00+7e61287100 1.1 10031105
15:00+7e51187100 2.2 10011336
18:00+6e4994100 2.1 10021121
21:00+5ene3896100 4.1 1004895
13 may, thu
thu1300:00+5nne1497100 1.3 1003208
03:00+5ne1298100 1.4 100476
06:00+5nne1197100 0.3 100433
09:00+5ne1297100 2.8 1004104
12:00+6ene1194100 2.0 1005148
15:00+6sw0196100 3.1 1005136
18:00+5wsw1497100 2.0 1007326
21:00+4nw1194100 2.1 100720
14 may, fri
fri1400:00+4nw0188100 0.0 100712
03:00+3e1190100 0.0 100611
06:00+3ene1392100 0.0 1005130
09:00+3ne31197100 6.5 1003683
12:00+4ne51298100 10.9 10001149
15:00+4nne51197100 20.8 997958
18:00+5n4997100 7.3 997949
21:00+4n51297100 10.1 997953
15 may, sat
sat1500:00+4n51396100 3.1 9971171
03:00+4nnw51397100 6.4 9981229
06:00+4nw41196100 0.8 999981
09:00+5nnw41190100 0.9 10001139
12:00+8nnw41080100 0.1 10011271
15:00+10nnw5106899 0.2 10021396
18:00+11nw476412 0.1 10021195
21:00+5wnw26885 0.1 1005112